Showing default

COSMOS 627, 7008

Orbit data source: Space-Track

COSMOS 627, 7008 is a payload satellite owned by VMF (CIS) in LEO that was launched on Sat, 29 Dec 1973 UTC via a KOSMOS 11K65M launch vehicle from the Plesetsk Missile And Space Complex (PKMTR). Payload-class satellites include a variety of spacecraft equipped with specific instruments for various scientific and technological missions. These include communications satellites like Starlink; space stations such as the ISS; scientific satellites like the Hubble; Earth observation satellites from companies like Planet Labs, Umbra, and HawkEye 360; GPS; miniature CubeSats for education and research; and military/defense satellites.

Loading next visibility...
Identifier
7008, 1973-109A
Orbit
LEO
Country
Flag of CISCIS
Related business
Manufacturer
Omsk Av. Zav.
Mission
Spacecraft
Bus & Motor
KAUR-1 11F617, Unknown motor
Mass
800 kg wet, 800 kg dry
Launch date (UTC)
1973-12-29 (52 years ago)
Launch vehicle
KOSMOS 11K65M
Launch site
Plesetsk Missile And Space Complex (PKMTR)
Object type
Payload
Rocket body
Debris
Shape & HBR
Unknown
Radar Cross Section
Large (>1 m²)

Expand to show TLE details & history
Last TLE update: 2 days ago

TLE from 2 days ago
0 COSMOS 627
1  7008U 73109A   26171.37610869  .00000063  00000-0  52154-4 0  9992
2  7008  82.9536 119.3420 0031400 330.2221 142.9084 13.73078689628322
Epoch: 2026-06-20T09:01Z
TLE epoch observation values (Epoch: 2026-06-20T09:01:35.790Z)
Latitude
65.75374°
Longitude
-120.49315°
Altitude
1,018.382 km
Speed
7.339 km/s
True Right ascension
18h 53m 59s
True Declination
65° 37' 45"
Sunlit
Object was in daylight at epoch
Visualization orbit readout
Latitude
Unknown
Longitude
Unknown
Altitude
Unknown
Speed
Unknown
Apparent Right ascension
Unknown
Apparent Declination
Unknown
Sunlit
N/A
Visualization observer readout
Local Sidereal Time
23:18:23
Azimuth
Unknown
Elevation
Unknown
Doppler factor
Unknown
Orbital elements
Apogee altitude
1,008.812 km
Perigee altitude
962.567 km
Semi-major axis
7,363.827 km
Eccentricity
0.00314
Inclination
82.9536°
RAAN
119.342°
Arg. of periapsis
330.2221°
True anomaly
143.12472°
Mean anomaly
142.9084°
Eccentric anomaly
143.01663°
Mean motion
3.43469 °/min
Orbital period
104.81 mins
BSTAR
0.000052154
Loading maneuver chart data...
Computing Atmospheric mass density...
Loading historical data...
Loading historical data...
Loading historical data...
Loading historical data...
Loading historical data...
Loading historical data...
Loading historical data...
Other satellites on launch #109 in the year 1973 (1973-12-29 UTC)

Documentation

Showing up to 5 results
|